Location: Ambatotampy
(18.8181°S, 47.6186°E)
Time: 23:06:42
(UTC+00:00)

Cosmos 2034 Rocket - Pass Details

Date: 21 January 2021
Orbit: 957 x 1001 km, 82.9° (Epoch: 24 February)

Event Time Altitude Azimuth Distance (km) Brightness Sun altitude
Rises 01:50:39 0° 186° (S) 3,704 7.3 -9.1°
Reaches altitude 10° 01:53:10 10° 187° (S) 2,757 6.6 -8.6°
Maximum altitude 01:59:30 82° 273° (W) 1,009 4.1 -7.2°
Drops below altitude 10° 02:05:51 10° 360° (N) 2,756 6.1 -5.8°
Sets 02:08:22 0° 1° (N) 3,702 6.8 -5.3°
